sat.trackr.live / text

‹ back to catalog

ONEWEB-0558

NORAD 56059 · 2023-043P

PAYLOAD ACTIVE UNKNOWN

§ Identity

Operator
Country
UK
Launch date
2023-03-26
Launch site
SRILR
Launch vehicle
Mass (kg)
RCS (m²)

Purposes: comms

External: N2YO · Heavens-Above · Gunter

§ Orbital elements

Epoch: 2026-05-24T23:28:37.420032Z

Period
108.94 min
Inclination
87.9251°
Eccentricity
0.0001766
Mean motion
13.21825250 rev/d
Perigee alt
1,176.4 km
Apogee alt
1,179.1 km
Semi-major
7,555.9 km
B*
-2.9814e-5
RAAN
248.5965°
Arg perigee
108.5104°
Mean anomaly
251.6222°
Rev number
15,517

§ Raw data

ONEWEB-05581 56059U 23043P   26144.97821088  .00000001  00000+0 -29814-4 0  99962 56059  87.9251 248.5965 0001766 108.5104 251.6222 13.21825250155175

JSON: /api/v1/satellites/56059 · /tle

For live sub-satellite position, see the globe view (requires WebGL).

§ Visibility from observer

Set your observer location to see the next 7 days of passes ≥ 10°. The values pass through the URL so the page stays shareable.

No JS? Fill the form by hand. The geolocation button needs JavaScript.